Flag Weather past 2 weeks in Cleveland, Ohio, U.S.A.

Now
42 °F

Mostly cloudy.


Feels Like: 38 °F
Forecast: 39 / 49 °F
Wind: 6 mph from North

Location: Cleveland-Hopkins International Airport

Current Time: Oct 30, 2014 at 9:23:47 AM

Latest Report: Oct 30, 2014 at 8:51 AM


Visibility: 10 mi

Pressure: 30.16 "Hg

Humidity: 92%

Dew point: 40 °F

Location of ClevelandLocation

Historic Weather in Cleveland — Graph

°F

Cleveland temperature yesterday

Maximum temperature yesterday: 53 °F (at 9:51 AM)
Minimum temperature yesterday: 43 °F (at 10:51 PM)
Average temperature yesterday: 48 °F

Past Weeks' High & Low Weather Summary

 TemperatureHumidityPressure
High73 °F (Oct 27, 2:51 PM)97% (Oct 16, 2:04 AM)30.30 "Hg (Oct 16, 2:04 AM)
Low37 °F (Oct 24, 3:51 AM)33% (Oct 27, 11:51 AM)29.56 "Hg (Oct 17, 2:51 PM)
Average53 °F74%29.95 "Hg
* Reported Oct 15 7:00 AM — Oct 30 7:51 AM, Cleveland, Weather by CustomWeather, © 2014

Note: Actual official high and low records may vary slightly from our data, if they occured in-between our weather recording intervals... More about our weather records

Advertising

Cleveland weather history for previous 24 hours

 ConditionsComfort  
Time TempWeatherWind HumidityBarometerVisibility
7:51 AM
Oct 30
43 °FLight rain. Mostly cloudy.5 mph97%30.14 "Hg10 mi
6:51 AM43 °FLight rain. Fog.5 mph97%30.13 "Hg4 mi
5:51 AM42 °FMostly cloudy.6 mph92%30.12 "Hg10 mi
4:51 AM42 °FMostly cloudy.6 mph89%30.11 "Hg10 mi
3:51 AM42 °FOvercast.6 mph92%30.11 "Hg10 mi
2:51 AM45 °FPartly cloudy.7 mph80%30.10 "Hg10 mi
1:51 AM43 °FMostly cloudy.7 mph89%30.10 "Hg10 mi
12:51 AM43 °FMostly cloudy.8 mph89%30.09 "Hg10 mi
11:51 PM
Oct 29
43 °FOvercast.8 mph89%30.09 "Hg10 mi
10:51 PM43 °FLight rain. Mostly cloudy.8 mph89%30.10 "Hg7 mi
9:55 PM44 °FMostly cloudy.9 mph85%30.08 "Hg10 mi
8:51 PM46 °FMostly cloudy.14 mph73%30.08 "Hg10 mi
7:51 PM45 °FMostly cloudy.7 mph82%30.08 "Hg10 mi
7:03 PM47 °FLight rain. Mostly cloudy.17 mph74%30.06 "Hg10 mi
6:51 PM48 °FLight rain. More clouds than sun.10 mph66%30.06 "Hg10 mi
5:51 PM48 °FMore clouds than sun.13 mph63%30.04 "Hg10 mi
4:51 PM49 °FOvercast.12 mph59%30.03 "Hg10 mi
3:51 PM50 °FOvercast.16 mph57%30.01 "Hg10 mi
2:51 PM51 °FMore clouds than sun.17 mph56%30.00 "Hg10 mi
1:51 PM53 °FPartly sunny.18 mph52%29.99 "Hg10 mi
12:51 PM53 °FPartly sunny.18 mph55%29.99 "Hg10 mi
11:51 AM53 °FScattered clouds.15 mph55%30.01 "Hg10 mi
10:51 AM51 °FPassing clouds.14 mph61%30.01 "Hg10 mi
9:51 AM53 °FPassing clouds.9 mph47%30.00 "Hg10 mi
Weather by CustomWeather, © 2014

See weather overviewHow to use our weather pages